Temperature
11 11 10 10 10 9 9 9 8 8 7 7 6 6 5 5 4 4 4 3 3 2 2 2 1 1 0 0 -1 -1 -2 -3 -3 -3 -3 -3 -3 -3 -3 -4 -4 -4 -3
11 10 10 10 9 9 9 8 8 7 7 6 6 5 5 5 4 4 3 3 2 2 1 1 1 0 0 -0 -1 -2 -2 -3 -4 -4 -4 -4 -4 -4 -4 -5 -4 -4 -4
10 10 10 9 9 9 8 8 7 7 7 6 5 5 5 4 4 3 3 2 2 1 1 1 0 -0 -0 -1 -2 -2 -3 -3 -4 -4 -5 -5 -5 -5 -5 -5 -5 -5 -5
10 10 9 9 9 8 8 7 7 7 6 6 5 5 4 4 3 3 2 2 1 1 1 0 0 -0 -1 -1 -2 -3 -3 -4 -4 -5 -5 -5 -5 -5 -5 -5 -5 -5 -5
10 10 9 9 8 8 7 7 6 6 6 5 5 4 4 3 3 2 2 1 1 1 0 -0 -0 -1 -1 -2 -3 -3 -4 -5 -5 -5 -5 -5 -5 -5 -5 -5 -5 -5 -5
10 9 9 8 8 7 7 6 6 5 5 5 4 4 3 3 2 2 1 1 0 -0 -1 -1 -1 -1 -2 -2 -3 -4 -4 -5 -5 -5 -5 -5 -5 -6 -6 -6 -6 -6 -6
9 9 8 8 7 7 6 6 5 5 4 4 4 3 3 2 2 1 1 0 -0 -1 -1 -1 -2 -2 -3 -3 -3 -4 -5 -5 -5 -6 -6 -6 -6 -6 -6 -6 -6 -6 -6
9 8 8 7 7 6 6 5 5 4 4 4 3 3 2 2 1 1 0 -0 -1 -1 -2 -2 -2 -3 -3 -4 -4 -5 -5 -5 -6 -6 -6 -6 -6 -6 -6 -6 -6 -6 -6
8 8 7 7 6 6 5 5 4 4 3 3 2 2 2 1 1 0 -0 -1 -1 -2 -2 -2 -3 -3 -4 -5 -5 -6 -6 -6 -6 -6 -6 -6 -6 -6 -6 -6 -6 -7 -7
8 7 7 6 6 5 5 4 4 3 3 2 2 2 1 1 0 -0 -1 -2 -2 -2 -3 -3 -4 -4 -4 -5 -6 -6 -6 -6 -6 -6 -6 -6 -6 -6 -6 -6 -7 -7 -7
7 6 6 5 5 5 4 4 3 3 2 2 1 1 1 0 -0 -1 -1 -2 -3 -3 -4 -4 -4 -5 -5 -6 -6 -6 -6 -6 -6 -6 -6 -6 -6 -7 -7 -7 -7 -7 -8
6 6 5 5 4 4 3 3 2 2 1 1 1 0 -0 -1 -1 -2 -2 -3 -3 -4 -4 -5 -5 -6 -6 -6 -6 -6 -6 -6 -7 -7 -7 -7 -7 -7 -7 -7 -8 -8 -8
6 5 5 4 4 3 3 2 2 1 1 0 -0 -1 -1 -2 -2 -3 -3 -3 -4 -5 -5 -6 -6 -6 -6 -7 -7 -7 -7 -7 -7 -7 -7 -8 -8 -8 -8 -8 -8 -8 -8
5 4 4 4 3 3 2 2 1 1 -0 -1 -1 -2 -2 -3 -3 -3 -4 -5 -5 -5 -6 -6 -6 -6 -7 -7 -7 -7 -7 -8 -8 -8 -8 -8 -8 -8 -8 -8 -8 -9 -9
4 4 3 3 2 2 1 1 0 -0 -1 -1 -2 -2 -3 -3 -4 -4 -5 -6 -6 -6 -7 -7 -7 -7 -7 -7 -8 -8 -8 -8 -9 -9 -9 -9 -9 -9 -9 -9 -9 -9 -9
3 3 3 2 2 1 1 0 -0 -1 -1 -2 -2 -3 -3 -4 -4 -5 -6 -6 -7 -7 -7 -7 -8 -8 -8 -8 -8 -9 -9 -9 -9 -9 -9 -10 -10 -9 -9 -9 -9 -9 -9
3 2 2 1 1 0 -0 -1 -1 -2 -2 -2 -3 -3 -4 -5 -5 -6 -6 -7 -7 -8 -8 -8 -8 -8 -9 -9 -9 -9 -10 -10 -10 -10 -10 -10 -10 -10 -10 -10 -10 -10 -10
2 1 1 0 -0 -1 -1 -2 -2 -3 -3 -4 -4 -4 -5 -5 -6 -7 -7 -8 -8 -8 -8 -9 -9 -9 -9 -10 -10 -10 -10 -10 -11 -11 -11 -10 -10 -10 -10 -10 -10 -10 -10
1 0 -0 -1 -1 -2 -2 -3 -3 -4 -4 -5 -5 -5 -6 -7 -7 -8 -8 -8 -9 -9 -9 -9 -10 -10 -10 -10 -11 -11 -11 -11 -11 -11 -11 -11 -11 -10 -10 -10 -10 -10 -10
-0 -1 -1 -2 -2 -3 -3 -4 -4 -5 -5 -6 -6 -7 -7 -8 -8 -8 -9 -9 -9 -9 -10 -10 -10 -10 -11 -11 -11 -11 -11 -11 -11 -11 -11 -11 -11 -11 -11 -10 -10 -10 -10
-1 -1 -2 -2 -3 -3 -4 -5 -5 -6 -6 -7 -7 -7 -8 -9 -9 -9 -9 -9 -10 -10 -10 -10 -11 -11 -11 -11 -11 -12 -12 -12 -12 -12 -12 -12 -11 -11 -11 -11 -10 -10 -10
-2 -2 -3 -3 -4 -4 -5 -6 -6 -7 -7 -8 -8 -8 -9 -9 -9 -10 -10 -10 -10 -10 -11 -11 -11 -11 -11 -12 -12 -12 -12 -12 -12 -12 -12 -12 -12 -12 -11 -11 -11 -11 -11
-3 -3 -4 -4 -5 -5 -6 -7 -7 -8 -8 -8 -9 -9 -9 -10 -10 -10 -10 -11 -11 -11 -11 -11 -12 -12 -12 -12 -12 -12 -12 -12 -13 -13 -13 -12 -12 -12 -12 -11 -11 -11 -11
-4 -4 -5 -5 -6 -6 -7 -8 -8 -8 -9 -9 -9 -10 -10 -10 -11 -11 -11 -11 -11 -12 -12 -12 -12 -12 -12 -12 -13 -13 -13 -13 -13 -13 -13 -13 -13 -12 -12 -12 -11 -11 -11
-4 -5 -6 -6 -7 -7 -8 -8 -9 -9 -9 -10 -10 -10 -11 -11 -11 -11 -11 -12 -12 -12 -12 -12 -12 -12 -12 -12 -12 -13 -13 -13 -13 -13 -13 -13 -13 -13 -12 -12 -12 -11 -11
-5 -6 -6 -7 -8 -8 -9 -9 -9 -10 -10 -10 -11 -11 -11 -11 -11 -12 -12 -12 -12 -12 -12 -12 -12 -12 -12 -12 -12 -12 -13 -13 -13 -13 -13 -13 -13 -13 -12 -12 -12 -12 -11
Wind_Speed
15 14 13 12 11 11 10 10 9 8 8 8 7 7 6 6 6 7 8 8 9 10 9 10 11 11 10 10 10 10 11 12 16 16 14 15 17 17 17 19 20 20 19
15 14 13 12 12 11 10 10 9 9 8 8 7 7 7 7 7 8 9 9 10 11 11 12 12 11 13 12 11 12 12 13 15 19 16 15 17 17 17 17 16 18 19
14 14 13 13 13 12 11 10 9 9 8 8 8 8 8 7 8 9 10 10 11 12 12 13 13 13 14 12 13 13 13 13 14 16 17 15 15 14 16 16 17 15 17
15 15 15 14 13 12 11 10 10 9 8 8 8 8 8 8 8 9 10 11 12 13 13 14 14 14 15 15 14 15 14 14 15 15 15 15 14 15 14 14 14 13 13
16 15 15 13 12 11 10 10 9 9 8 8 8 8 8 8 8 9 9 11 12 14 14 14 15 16 18 17 15 15 15 14 14 14 15 15 15 14 13 13 14 14 15
16 15 13 12 12 11 10 10 9 8 8 8 8 9 9 8 10 13 13 13 13 15 15 15 15 16 18 21 23 23 21 18 16 15 15 16 18 16 14 13 13 15 14
15 14 13 13 12 11 10 9 9 9 8 8 9 9 11 11 12 15 16 14 15 15 16 15 14 14 17 16 18 21 21 23 23 19 19 19 19 17 17 17 16 16 15
14 13 13 12 11 10 10 9 9 8 8 8 9 10 11 11 13 15 16 15 15 16 16 16 16 16 15 16 16 17 17 18 19 17 16 18 18 18 17 16 16 14 14
13 13 12 12 11 10 10 9 7 7 8 8 9 10 11 12 13 15 16 13 13 16 15 15 16 16 19 20 18 18 18 17 18 22 23 23 25 24 19 12 11 12 13
12 11 11 10 10 9 8 7 6 7 8 8 9 10 12 13 13 15 16 11 13 13 13 14 16 18 20 21 17 17 18 17 16 16 17 18 17 17 18 13 11 11 12
9 9 9 9 8 7 6 6 6 6 7 8 10 11 12 13 14 16 16 11 12 13 13 12 12 18 20 22 21 18 20 20 16 15 13 12 11 10 10 9 8 9 10
9 8 8 7 6 5 5 5 6 7 8 9 10 11 10 10 12 13 16 17 17 15 14 13 14 20 22 24 20 20 23 21 13 12 12 11 10 10 8 8 8 8 10
9 8 7 6 5 5 5 6 6 6 7 8 8 10 10 9 10 15 17 18 19 15 15 19 22 25 24 20 20 21 18 13 11 11 12 11 10 9 8 7 8 8 10
8 6 5 5 4 4 4 5 6 7 7 8 9 10 10 10 10 9 10 12 15 15 14 17 21 22 19 18 17 14 11 10 11 11 11 10 9 8 8 8 8 7 7
6 5 4 4 4 5 6 6 8 8 8 9 9 10 11 12 12 15 15 13 12 14 15 13 12 12 11 10 10 10 9 9 10 9 10 10 9 9 8 7 7 7 7
5 4 3 3 4 5 6 7 9 12 14 16 17 17 14 18 21 22 22 23 24 23 18 13 13 13 12 11 11 10 9 9 9 9 9 9 9 9 8 7 7 7 8
4 3 3 4 4 5 6 7 9 9 12 16 18 20 20 21 22 23 23 23 23 21 15 13 13 12 12 11 11 10 10 10 9 9 9 9 9 9 8 8 7 7 7
3 4 4 4 5 6 7 8 8 10 11 10 12 16 19 20 21 22 22 20 15 13 11 12 12 12 11 11 10 10 10 9 9 9 9 9 9 9 8 8 7 7 7
4 3 4 5 6 7 7 8 9 11 11 12 11 12 15 17 19 19 18 13 12 12 12 12 12 11 11 11 11 11 10 10 10 9 9 9 9 8 8 8 8 9 8
4 5 6 6 6 7 8 9 9 10 11 12 12 12 11 12 12 12 11 11 12 12 12 12 12 11 11 11 11 10 10 9 9 9 9 9 8 8 9 9 8 7 7
4 5 7 7 7 8 9 9 10 11 12 12 13 14 16 13 13 14 13 12 12 12 12 12 12 11 11 10 10 10 11 10 9 9 9 9 8 8 8 8 8 7 7
5 5 6 7 8 9 10 10 11 12 13 15 14 14 18 14 13 13 13 12 12 12 12 12 11 11 11 10 10 11 11 11 10 9 9 9 8 8 8 8 8 7 7
6 7 8 8 9 12 12 11 12 13 13 14 14 14 13 13 13 13 13 13 13 12 12 12 12 11 11 11 10 11 11 11 10 10 10 9 9 8 8 8 9 8 8
7 8 9 10 10 11 12 12 13 13 14 14 14 14 14 14 14 15 14 14 13 13 12 12 12 14 16 14 11 11 11 11 11 10 12 11 11 10 9 9 9 9 9
8 9 10 11 11 12 12 13 13 14 14 14 14 14 14 14 15 15 14 14 15 14 15 14 13 13 16 17 15 13 15 18 17 13 11 11 12 12 11 11 10 9 9
9 10 10 11 11 12 13 13 14 15 15 14 14 15 15 15 15 15 14 14 13 13 14 13 14 16 17 15 17 18 20 20 20 20 14 12 13 12 12 11 12 11 10
Wind_Direction
180 178 176 175 174 174 178 181 181 181 185 193 201 211 221 232 239 247 254 261 265 269 268 268 271 274 274 273 271 269 268 270 277 285 288 293 294 293 294 294 294 294 294
182 180 179 175 175 179 183 183 184 188 193 200 206 216 227 236 245 253 260 262 266 270 272 272 273 275 273 273 272 271 272 272 277 286 290 293 293 293 292 292 292 291 291
182 181 179 179 181 186 186 184 187 192 197 203 212 222 232 240 248 256 263 266 268 270 272 273 274 275 275 275 274 275 275 276 276 281 287 290 291 292 292 290 289 290 291
184 184 185 186 187 188 186 186 191 195 202 210 219 229 237 244 250 257 263 267 270 271 271 270 271 271 272 276 277 277 277 277 276 278 283 287 289 290 289 290 292 292 292
187 189 191 188 185 185 186 190 193 199 208 216 225 235 242 246 248 252 259 264 268 272 272 270 269 267 270 272 274 276 276 275 277 278 281 286 287 290 289 291 291 293 293
190 191 187 183 182 186 189 191 196 204 213 220 230 241 249 251 253 259 267 272 273 274 276 276 274 272 271 272 273 275 275 277 279 279 281 282 285 288 289 289 290 292 293
190 188 184 183 185 188 189 194 202 211 219 229 239 247 255 258 258 266 270 276 277 277 278 279 278 277 278 278 280 280 278 275 274 275 277 280 285 287 289 287 285 284 287
187 186 183 184 187 188 193 202 210 218 227 237 247 254 261 265 265 271 277 278 277 276 276 277 279 280 280 281 282 280 277 275 273 272 272 276 279 282 281 281 284 286 286
186 185 183 184 185 189 198 208 215 224 235 245 253 259 265 270 268 273 279 282 278 278 277 276 276 278 280 283 283 282 282 281 277 273 272 275 277 279 281 284 285 288 290
184 181 179 182 186 193 203 212 222 231 243 252 257 262 267 272 274 275 279 279 280 281 281 278 275 276 280 284 284 284 284 286 287 286 282 280 279 279 280 276 278 281 286
170 169 172 179 187 195 204 215 226 238 250 258 264 267 269 271 276 275 276 276 279 283 283 283 281 282 283 285 285 283 283 288 289 288 286 283 278 273 270 267 262 262 271
157 161 168 176 179 190 206 222 235 245 257 264 270 274 273 272 271 275 277 277 280 282 283 284 284 287 288 287 286 283 287 292 289 287 285 283 281 278 274 270 260 257 260
155 161 167 174 184 198 217 233 244 250 257 266 271 276 280 280 278 277 281 282 282 281 281 283 287 289 291 289 285 287 290 288 284 283 284 284 284 284 281 275 265 257 258
159 164 171 185 201 215 228 237 245 251 258 266 272 278 282 283 282 283 284 286 285 284 284 285 288 287 283 281 283 284 280 277 278 280 283 285 285 281 276 273 272 273 274
163 172 185 203 222 237 244 246 251 254 257 263 271 275 280 282 282 285 289 290 290 288 292 290 287 285 282 278 279 280 279 277 278 277 279 282 282 279 276 273 268 270 272
174 189 206 224 239 251 261 267 248 252 264 263 266 271 275 277 286 290 292 292 293 293 293 288 286 286 286 286 286 283 280 279 278 278 278 280 280 278 278 274 265 264 269
193 209 226 240 252 260 266 273 281 273 262 265 268 271 274 281 286 290 292 293 293 293 287 282 282 284 285 285 284 281 279 280 280 278 277 277 277 275 274 273 268 264 267
210 224 238 250 258 264 267 271 276 283 287 283 275 274 277 281 285 288 291 294 289 283 277 278 280 281 282 282 282 280 276 277 276 274 275 274 274 272 271 270 268 265 269
225 238 248 260 263 267 270 273 275 278 280 285 287 283 280 283 285 285 287 281 280 280 278 278 278 279 280 279 280 278 273 272 274 274 275 275 272 269 268 267 268 265 263
238 244 256 266 268 270 271 273 275 277 279 282 283 286 291 290 286 285 280 276 275 276 277 278 278 277 278 279 278 275 273 270 272 271 273 273 270 268 266 265 264 263 260
251 256 259 266 267 270 272 273 275 277 278 280 282 284 287 287 285 284 282 279 276 277 277 278 277 276 275 275 274 271 269 270 271 270 272 272 270 268 265 263 262 257 257
258 264 266 269 272 272 274 274 276 276 278 281 283 285 286 283 280 280 279 279 278 278 278 277 276 274 273 272 270 269 268 269 268 267 268 268 267 267 266 262 259 255 251
264 269 272 273 274 276 278 276 276 277 279 280 283 285 285 282 280 280 280 281 280 279 278 275 274 273 271 269 267 265 264 265 266 265 266 268 265 265 264 260 256 253 250
270 273 276 278 278 278 279 279 279 280 281 282 283 284 284 283 282 282 282 282 281 280 277 275 273 271 271 271 269 264 262 261 261 259 259 260 261 261 260 258 256 250 247
276 278 279 280 281 281 282 282 282 283 283 283 283 283 283 283 283 283 282 281 281 279 278 277 274 273 271 269 267 266 264 262 261 260 255 253 253 252 253 254 253 250 243
280 281 282 282 282 282 283 283 284 284 284 284 283 283 283 283 283 283 283 281 280 280 279 277 273 272 272 270 269 267 265 264 263 261 256 254 249 247 246 247 246 243 243
Height
1492 1496 1499 1502 1505 1507 1510 1511 1513 1513 1514 1514 1514 1513 1513 1511 1510 1508 1506 1504 1502 1500 1497 1494 1492 1489 1486 1482 1479 1476 1472 1468 1461 1454 1454 1450 1446 1442 1438 1434 1430 1426 1422
1488 1492 1495 1498 1501 1503 1505 1507 1508 1509 1510 1510 1509 1509 1508 1506 1505 1503 1501 1499 1496 1494 1491 1488 1485 1482 1479 1476 1472 1469 1465 1462 1457 1448 1445 1443 1439 1436 1431 1427 1423 1420 1416
1484 1487 1490 1493 1496 1499 1501 1503 1504 1505 1505 1505 1505 1504 1503 1501 1500 1498 1495 1493 1490 1488 1485 1482 1479 1476 1472 1469 1465 1462 1458 1454 1450 1444 1438 1436 1432 1429 1425 1421 1417 1413 1409
1479 1482 1485 1488 1491 1494 1496 1498 1499 1500 1500 1500 1499 1498 1497 1496 1494 1492 1489 1486 1484 1481 1478 1475 1471 1468 1465 1461 1458 1454 1451 1447 1443 1438 1432 1429 1426 1423 1419 1415 1410 1407 1403
1473 1477 1480 1484 1487 1489 1491 1493 1494 1495 1495 1494 1494 1493 1491 1489 1487 1485 1482 1479 1476 1473 1470 1467 1463 1460 1457 1454 1450 1446 1443 1439 1436 1431 1426 1422 1419 1416 1413 1409 1405 1400 1397
1467 1471 1475 1479 1481 1484 1486 1488 1488 1489 1489 1489 1488 1486 1485 1483 1481 1479 1476 1472 1469 1465 1462 1459 1455 1452 1448 1445 1442 1438 1436 1432 1428 1425 1420 1416 1412 1410 1407 1404 1399 1395 1389
1461 1466 1470 1473 1476 1479 1481 1482 1483 1483 1483 1482 1481 1480 1478 1476 1474 1472 1468 1465 1461 1457 1454 1451 1447 1444 1440 1436 1432 1429 1426 1423 1421 1418 1413 1409 1406 1404 1401 1397 1393 1389 1384
1456 1460 1464 1467 1471 1473 1475 1476 1477 1477 1477 1476 1475 1473 1471 1469 1467 1464 1461 1457 1453 1449 1446 1443 1439 1435 1432 1428 1424 1420 1417 1414 1412 1409 1405 1401 1399 1396 1394 1390 1386 1382 1378
1451 1454 1458 1462 1465 1467 1469 1470 1471 1471 1470 1469 1468 1466 1464 1461 1459 1456 1453 1448 1444 1440 1437 1434 1430 1427 1423 1420 1417 1412 1408 1405 1404 1401 1398 1394 1391 1389 1387 1384 1380 1376 1371
1447 1451 1454 1457 1460 1462 1464 1465 1465 1465 1464 1463 1461 1459 1456 1454 1452 1448 1445 1440 1435 1432 1428 1425 1422 1418 1415 1413 1409 1405 1401 1398 1395 1392 1389 1386 1383 1381 1379 1377 1373 1370 1367
1444 1448 1450 1453 1456 1457 1459 1459 1459 1458 1457 1456 1454 1451 1449 1446 1443 1440 1437 1433 1428 1423 1419 1416 1413 1411 1407 1405 1402 1398 1394 1391 1387 1384 1380 1377 1375 1372 1370 1369 1366 1364 1361
1442 1444 1447 1449 1451 1453 1453 1453 1453 1452 1450 1448 1446 1443 1440 1438 1435 1431 1429 1425 1421 1416 1411 1408 1405 1402 1399 1396 1393 1390 1387 1384 1380 1376 1373 1370 1368 1365 1363 1361 1359 1357 1355
1439 1442 1444 1446 1447 1447 1448 1447 1447 1445 1443 1441 1438 1435 1432 1430 1427 1423 1420 1416 1412 1408 1404 1400 1397 1394 1390 1387 1384 1381 1379 1375 1372 1369 1366 1363 1361 1359 1356 1354 1352 1351 1349
1437 1439 1440 1441 1442 1442 1442 1441 1440 1438 1436 1433 1431 1427 1424 1421 1418 1415 1411 1408 1404 1400 1396 1392 1388 1385 1381 1378 1375 1373 1370 1368 1365 1362 1359 1357 1355 1353 1350 1349 1347 1345 1343
1434 1435 1436 1437 1437 1436 1436 1435 1433 1431 1429 1427 1423 1420 1416 1412 1410 1408 1404 1399 1396 1392 1388 1384 1380 1377 1373 1370 1367 1365 1362 1360 1357 1355 1353 1351 1349 1347 1345 1344 1342 1340 1339
1430 1431 1432 1432 1431 1430 1429 1427 1425 1424 1421 1419 1416 1413 1408 1405 1401 1398 1395 1391 1387 1384 1380 1375 1372 1369 1366 1363 1360 1358 1355 1353 1351 1349 1347 1345 1343 1342 1340 1339 1337 1336 1335
1427 1427 1427 1426 1425 1424 1422 1420 1417 1415 1413 1410 1407 1404 1400 1396 1392 1389 1385 1382 1379 1376 1372 1367 1364 1361 1359 1356 1353 1351 1348 1346 1344 1343 1341 1339 1338 1337 1335 1334 1333 1332 1331
1422 1422 1422 1421 1419 1417 1415 1413 1410 1406 1403 1400 1398 1394 1391 1387 1384 1380 1377 1373 1369 1366 1363 1360 1357 1354 1351 1348 1346 1344 1341 1340 1338 1336 1335 1334 1332 1331 1330 1329 1328 1327 1327
1417 1417 1416 1414 1413 1411 1408 1405 1402 1399 1395 1391 1388 1385 1382 1378 1374 1371 1368 1365 1361 1358 1355 1352 1349 1346 1343 1341 1339 1337 1335 1333 1332 1330 1329 1328 1327 1326 1325 1324 1324 1323 1322
1412 1411 1410 1408 1406 1404 1401 1398 1395 1391 1387 1383 1379 1376 1373 1370 1365 1362 1360 1356 1353 1349 1346 1343 1341 1338 1336 1333 1331 1329 1328 1326 1325 1324 1323 1322 1321 1320 1320 1319 1319 1318 1318
1406 1405 1403 1401 1399 1396 1393 1390 1386 1383 1379 1375 1371 1368 1365 1361 1357 1353 1350 1347 1344 1341 1338 1335 1332 1330 1328 1326 1324 1322 1321 1320 1319 1318 1317 1316 1316 1315 1315 1314 1314 1314 1314
1400 1398 1396 1394 1391 1388 1385 1382 1378 1374 1370 1366 1362 1359 1356 1352 1348 1344 1341 1338 1335 1332 1329 1326 1323 1321 1320 1318 1316 1315 1314 1313 1312 1311 1310 1310 1310 1309 1309 1309 1309 1309 1309
1393 1391 1389 1386 1383 1380 1376 1373 1369 1365 1361 1357 1354 1350 1346 1343 1339 1335 1332 1329 1326 1323 1320 1318 1315 1312 1311 1309 1308 1307 1306 1305 1305 1304 1304 1304 1304 1304 1304 1304 1304 1304 1304
1386 1384 1381 1378 1375 1371 1368 1364 1360 1356 1352 1348 1344 1341 1337 1333 1329 1326 1322 1319 1316 1313 1311 1308 1306 1304 1302 1301 1300 1298 1297 1297 1297 1296 1296 1297 1297 1297 1297 1298 1298 1299 1300
1379 1376 1373 1370 1366 1362 1359 1355 1351 1347 1343 1339 1335 1331 1327 1323 1320 1316 1313 1310 1307 1304 1301 1299 1297 1295 1293 1292 1291 1290 1289 1289 1289 1289 1289 1289 1290 1290 1291 1292 1292 1293 1294
1371 1368 1365 1361 1357 1354 1350 1345 1341 1337 1333 1329 1325 1321 1317 1314 1310 1306 1303 1300 1297 1294 1292 1289 1287 1286 1284 1283 1281 1281 1280 1280 1280 1281 1282 1282 1282 1283 1284 1285 1286 1287 1288